Вернуться в каталог

CZ-6A DEB

АктивенPO
NORAD 54346·DEBRIS·🇨🇳 China

Запущен Nov 11, 2022 с Taiyuan Satellite Launch Center

Loading…

Ближайшие Пролёты (ближайшие 24 часа)

TLE

СвежийSource: Space-Track

Эпоха: Sep 14, 2026, 13:01 UTC

1 54346U 22151CR  26257.54244073  .00215639  00000-0  42510-2 0  9994
2 54346  98.5421  15.4644 0021842 179.0177 181.1115 15.46143823206469

Отслеживайте CZ-6A DEB в реальном времени с AllMySat

Download on the App Store